Tracking 20037 objects as of 21-Nov-2019
Live streaming from Space Station
objects crossing your sky now

NOAA 16 DEB

Track NOAA 16 DEB now!
10-day predictions


NORAD ID: 41247
Int'l Code: 2000-055EX
Perigee: 761.4 km
Apogee: 863.9 km
Inclination: 98.9 °
Period: 101.0 minutes
Semi major axis: 7183 km
RCS: Unknown
Launch date: September 21, 2000
Source: United States (US)
Launch site: AIR FORCE WESTERN TEST RANGE (AFWTR)

Note: This is SATELLITE DEBRIS
aabbcc
Your satellite tracking list
Your tracking list is empty




NASA's NSSDC Master Catalog

Two Line Element Set (TLE):
1 41247U 00055EX  19323.09930312 +.00002201 +00000-0 +91879-3 0  9995
2 41247 098.9080 066.8965 0071310 287.5164 071.8231 14.25892332201700
Source of the keplerian elements: AFSPC